THORAD DELTA 1 DEB, 8180

Orbit data source: Space-Track

THORAD DELTA 1 DEB, 8180 is space debris in SSO originally from a launch on Fri, 15 Nov 1974 UTC launched from the Air Force Western Test Range (AFWTR). Debris objects in space refer to the collection of defunct objects orbiting the Earth. Examples of debris include non-operational satellites, rocket bodies, and fragments generated from explosions, collisions, or faulty payload assembly.

Loading next visibility...
Identifier
8180, 1974-089AW
Orbit
SSO
Country
Flag of USUS
Related business
Manufacturer
Unknown
Mission
Spacecraft
Bus & Motor
Unknown
Mass
Unknown
Launch date (UTC)
1974-11-15 (51 years ago)
Launch vehicle
Unknown
Launch site
Air Force Western Test Range (AFWTR)
Object type
Payload
Rocket body
Debris
Shape & HBR
Unknown shape, 0.2 m
Radar Cross Section
Medium (>0.1 m² and <1 m²)

Expand to show TLE details & history
Last TLE update: 6 hours ago

TLE from 6 hours ago
0 THORAD DELTA 1 DEB
1  8180U 74089AW  26035.47880955  .00000360  00000-0  29170-2 0  9997
2  8180 100.8914 127.2397 0110836  26.3794 353.0860 12.40156376316698
Epoch: 2026-02-04T11:29Z
TLE epoch observation values (Epoch: 2026-02-04T11:29:29.145Z)
Latitude
18.94868°
Longitude
176.45446°
Altitude
1,421.316 km
Speed
7.191 km/s
True Right ascension
08h 13m 52s
True Declination
18° 51' 08"
Sunlit
Object was in full shadow at epoch
Visualization orbit readout
Latitude
Unknown
Longitude
Unknown
Altitude
Unknown
Speed
Unknown
Apparent Right ascension
Unknown
Apparent Declination
Unknown
Sunlit
N/A
Visualization observer readout
Local Sidereal Time
19:51:29
Azimuth
Unknown
Elevation
Unknown
Doppler factor
Unknown
Orbital elements
Apogee altitude
1,590.808 km
Perigee altitude
1,416.095 km
Semi-major axis
7,881.588 km
Eccentricity
0.01108
Inclination
100.8914°
RAAN
127.2397°
Arg. of periapsis
26.3794°
True anomaly
352.93098°
Mean anomaly
353.086°
Eccentric anomaly
353.0087°
Mean motion
3.10186 °/min
Orbital period
116.06 mins
BSTAR
0.002917
Loading maneuver chart data...
Computing Atmospheric mass density...
Loading historical data...
Loading historical data...
Loading historical data...
Loading historical data...
Loading historical data...
Loading historical data...
Loading historical data...

Documentation

Showing up to 5 results
|